EHI
0 0 0 0 0 0 0 0 0 0 0 0 0 0 0 0 0 0 0 1 0 0 0 0 0 0 0 0 1 3 4 4 2 1 1 1 1 2 2 2 1 0 0 0
0 0 0 0 0 0 0 0 0 0 0 0 0 0 0 0 0 0 0 1 1 0 0 0 0 0 0 0 1 2 3 4 4 4 3 3 1 1 1 1 1 0 0 0
0 0 0 0 0 0 0 0 0 0 0 0 0 0 0 0 0 0 0 1 1 1 0 0 0 0 0 0 0 1 1 3 4 5 5 5 3 1 1 1 0 0 0 0
0 0 0 0 0 0 0 0 0 0 0 0 0 0 0 0 0 0 0 0 1 2 1 1 0 0 0 0 0 0 0 1 2 3 5 6 5 3 2 2 1 0 0 0
0 0 0 0 0 0 0 0 0 0 0 0 0 0 0 0 0 0 0 0 1 2 3 2 1 0 0 0 0 0 0 0 0 1 3 4 5 4 4 3 2 1 0 0
0 0 0 0 0 0 0 0 0 0 0 0 0 0 0 0 0 0 0 0 1 2 3 2 1 0 0 0 0 0 0 0 0 0 1 3 4 5 5 4 3 2 1 1
0 0 0 0 0 0 0 0 0 0 0 0 0 0 0 0 0 0 0 0 1 2 2 1 0 0 0 0 0 0 0 0 0 0 0 2 3 4 4 4 3 3 3 2
0 0 0 0 0 0 0 0 0 0 0 0 0 0 0 0 0 0 0 0 0 1 1 0 0 0 0 0 0 0 0 0 0 0 0 1 1 1 2 2 3 3 3 3
0 0 0 0 0 0 0 0 0 0 0 0 0 0 0 0 0 0 0 0 0 0 0 0 0 0 0 0 0 0 0 0 0 0 0 0 0 0 0 1 2 2 3 3
0 0 0 0 0 0 0 0 0 0 0 0 0 0 0 0 0 0 0 0 0 0 0 0 0 0 0 0 0 0 0 0 0 0 0 0 0 0 0 0 1 1 1 2
0 0 0 0 0 0 0 0 0 0 0 0 0 0 0 0 0 0 0 0 0 0 0 0 0 0 0 0 0 0 0 0 0 0 0 0 0 0 0 0 0 0 0 1
0 0 0 0 0 0 0 0 0 0 0 0 0 0 0 0 0 0 0 0 0 0 0 0 0 0 0 0 0 0 0 0 0 0 0 0 0 0 0 0 0 0 0 0
0 0 0 0 0 0 0 0 0 0 0 0 0 0 0 0 0 0 0 0 0 0 0 0 0 0 0 0 0 0 0 0 0 0 0 0 0 0 0 0 0 0 0 0
0 0 0 0 0 0 0 0 0 0 0 0 0 0 0 0 0 0 0 0 0 0 0 0 0 0 0 0 0 0 0 0 0 0 0 0 0 0 0 0 0 0 0 0
0 0 0 0 0 0 0 0 0 0 0 0 0 0 0 0 0 0 0 0 0 0 0 0 0 0 0 0 0 0 0 0 0 0 0 0 0 0 0 0 0 0 0 0
0 0 0 0 0 0 0 0 0 0 0 0 0 0 0 0 0 0 0 0 0 0 0 0 0 0 0 0 0 0 0 0 0 0 0 0 0 0 0 0 0 0 0 0
0 0 0 0 0 0 0 0 0 0 0 0 0 0 0 0 0 0 0 0 0 0 0 0 0 0 0 0 0 0 0 0 0 0 0 0 0 0 0 0 0 0 0 0
0 0 0 0 0 0 0 0 0 0 0 0 0 0 0 0 0 0 0 0 0 0 0 0 0 0 0 0 0 0 0 0 0 0 0 0 0 0 0 0 0 0 0 0
0 0 0 0 0 0 0 0 0 0 0 0 0 0 0 0 0 0 0 0 0 0 0 0 0 0 0 0 0 0 0 0 0 0 0 0 0 0 0 0 0 0 0 0
0 0 0 0 0 0 0 0 0 0 0 0 0 0 0 0 0 0 0 0 0 0 0 0 0 0 0 0 0 0 0 0 0 0 0 0 0 0 0 0 0 0 0 0
0 0 0 0 0 0 0 0 0 0 0 0 0 0 0 0 0 0 0 0 0 0 0 0 0 0 0 0 0 0 0 0 0 0 0 0 0 0 0 0 0 0 0 0
0 0 0 0 0 0 0 0 0 0 0 0 0 0 0 0 0 0 0 0 0 0 0 0 0 0 0 0 0 0 0 0 0 0 0 0 0 0 0 0 0 0 0 0
0 0 0 0 0 0 0 0 0 0 0 0 0 0 0 0 0 0 0 0 0 0 0 0 0 0 0 0 0 0 0 0 0 0 0 0 0 0 0 0 0 0 0 0
0 0 0 0 0 0 0 0 0 0 0 0 0 0 0 0 0 0 0 0 0 0 0 0 0 0 0 0 0 0 0 0 0 0 0 0 0 0 0 0 0 0 0 0
0 0 0 0 0 0 0 0 0 0 0 0 0 0 0 0 0 0 0 0 0 0 0 0 0 0 0 0 0 0 0 0 0 0 0 0 0 0 0 0 0 0 0 0
0 0 0 0 0 0 0 0 0 0 0 0 0 0 0 0 0 0 0 0 0 0 0 0 0 0 0 0 0 0 0 0 0 0 0 0 0 0 0 0 0 0 0 0
0 0 0 0 0 0 0 0 0 0 0 0 0 0 0 0 0 0 0 0 0 0 0 0 0 0 0 0 0 0 0 0 0 0 0 0 0 0 0 0 0 0 0 0
Wind_Speed
5 4 4 5 6 6 8 8 8 6 6 5 4 3 2 1 1 1 1 0 1 1 0 0 0 0 0 0 1 2 2 2 3 2 2 2 2 3 2 3 3 3 3 4
6 5 5 7 8 8 9 9 9 9 8 4 3 2 2 1 1 1 1 1 1 1 1 1 1 0 1 1 1 2 3 3 2 3 3 3 3 3 3 3 3 3 4 4
5 4 6 8 7 7 7 6 7 8 5 3 3 3 3 2 1 2 2 2 2 1 1 1 1 1 1 1 1 1 2 2 3 4 4 4 3 4 4 4 4 4 4 5
4 6 8 0 1 3 5 5 6 6 4 3 4 4 3 2 2 2 2 2 2 2 2 2 1 1 1 1 2 2 2 3 3 4 4 4 4 5 5 4 4 5 5 5
4 6 6 3 2 3 6 5 4 5 4 3 2 3 2 1 2 2 2 2 2 2 2 2 1 1 1 1 2 2 3 3 3 4 4 4 5 5 5 5 5 5 5 5
5 7 6 0 2 2 5 6 1 2 3 2 3 4 2 1 2 2 2 1 1 1 2 1 1 1 2 2 2 3 3 4 4 4 4 5 5 5 5 5 5 5 5 6
8 8 5 1 2 4 6 2 1 1 2 3 4 4 4 2 2 2 2 1 1 1 1 1 1 2 2 2 3 3 3 3 3 3 4 4 4 4 4 5 5 6 6 6
6 8 4 3 4 4 2 3 0 1 2 3 3 2 2 2 2 2 2 1 1 1 1 1 1 2 3 3 3 3 3 3 3 3 3 3 3 3 4 4 5 5 5 5
5 3 2 2 3 2 2 1 1 2 2 2 2 2 2 2 2 2 1 1 1 1 1 1 1 2 3 2 2 2 2 3 3 3 3 3 3 3 3 3 4 4 4 4
6 6 4 3 3 3 3 3 3 2 2 2 2 2 2 2 2 2 1 1 1 2 2 1 1 2 3 2 2 2 3 3 3 2 2 2 2 2 3 3 3 4 4 4
8 6 4 5 4 4 3 3 2 2 2 2 2 2 2 2 2 2 1 1 1 2 2 2 1 2 2 2 2 3 3 3 3 2 2 2 2 2 3 3 4 4 4 4
6 4 5 4 3 3 4 3 3 2 2 2 2 2 1 1 1 1 1 1 1 2 2 2 1 1 2 2 3 3 3 3 2 2 2 2 2 2 2 3 4 5 6 6
5 4 4 3 3 3 3 3 3 2 2 2 1 1 1 1 1 1 1 1 1 2 2 2 2 2 2 2 3 4 4 3 3 3 2 3 3 3 3 2 3 4 4 5
3 2 3 3 3 3 3 2 2 2 2 1 1 1 1 1 1 1 1 1 1 2 2 2 2 2 2 2 3 4 4 3 3 3 3 3 3 3 3 4 4 3 3 4
4 4 4 3 3 3 2 2 3 2 2 2 1 2 2 2 2 2 1 1 2 2 2 2 2 3 3 3 3 4 3 3 3 3 3 3 3 3 4 4 4 4 4 3
4 3 3 4 4 3 4 4 4 3 3 2 2 2 2 2 2 1 1 1 2 2 3 3 3 3 3 3 4 3 3 3 4 3 3 3 3 3 4 4 4 4 4 4
4 4 5 5 5 5 4 4 4 4 3 3 3 2 2 2 2 2 2 2 3 3 3 3 3 3 3 4 4 3 3 3 3 3 3 3 3 4 4 4 4 4 4 3
5 5 5 5 5 4 4 3 3 3 3 3 2 2 3 3 3 3 2 3 3 3 3 4 4 4 4 4 3 3 3 3 3 3 3 3 3 3 3 4 4 5 4 3
3 3 3 3 3 3 3 3 3 3 3 3 3 3 3 3 3 3 3 3 4 4 3 3 4 5 4 4 4 3 3 3 3 3 3 3 3 3 3 4 4 4 4 4
2 2 2 2 2 3 3 3 3 3 3 3 3 3 3 3 3 3 3 4 4 3 4 4 5 4 4 4 3 3 3 3 3 3 3 3 4 4 4 4 4 4 4 4
1 1 1 1 1 2 2 3 3 3 3 4 4 4 3 3 3 3 4 4 3 3 4 5 4 4 3 3 3 3 3 3 3 3 3 3 4 4 4 4 4 4 4 4
1 1 1 1 2 2 2 2 3 3 3 3 4 3 3 3 3 4 5 4 3 3 4 3 3 3 4 4 3 3 3 3 3 3 3 4 4 4 4 4 4 4 4 4
1 1 2 2 2 2 2 2 3 3 4 4 4 4 4 3 3 4 4 3 3 4 4 4 4 5 5 4 3 3 3 3 3 3 3 4 4 4 4 4 4 4 4 4
2 2 2 2 2 2 3 3 2 2 3 3 3 3 3 3 3 3 3 3 4 5 4 4 4 5 5 3 3 3 3 3 3 3 4 4 4 4 4 4 4 4 4 5
2 2 2 2 3 3 3 3 2 2 2 2 3 3 3 3 3 3 3 4 4 5 4 4 4 4 4 3 3 3 3 3 3 4 3 3 4 4 4 4 4 4 4 4
2 2 2 3 3 2 2 2 2 2 2 2 2 2 2 2 3 3 3 4 4 4 3 2 2 2 3 3 3 3 3 3 3 3 4 4 4 4 4 4 5 4 4 4
2 2 2 2 2 2 2 2 2 3 2 2 3 2 2 2 3 3 3 3 3 2 2 2 2 2 2 3 3 3 3 3 3 3 3 4 4 4 4 5 4 4 4 4
Wind_Direction
268 276 261 255 253 238 239 254 265 266 269 284 305 313 316 282 212 201 189 226 244 190 177 161 134 86 313 293 250 219 214 224 231 237 236 235 241 237 236 242 245 238 230 226
246 243 252 259 254 242 243 250 253 259 268 287 302 298 294 265 226 243 256 260 263 254 242 234 238 257 263 287 292 239 223 229 240 248 240 234 239 241 238 243 245 239 231 226
245 237 253 247 247 237 231 237 250 256 270 276 266 276 282 269 241 262 266 261 261 259 249 247 252 252 256 267 267 262 254 244 243 244 246 241 239 238 237 238 241 240 237 236
256 241 242 166 91 229 227 238 244 255 272 281 291 293 285 272 279 273 264 264 265 264 260 263 257 264 269 259 257 263 269 267 261 252 249 251 247 241 240 243 241 243 246 244
245 250 253 232 221 234 236 245 242 245 257 277 303 270 222 269 298 287 272 266 266 267 265 256 245 251 251 247 263 268 270 273 271 262 254 249 249 247 243 241 242 243 242 241
236 251 252 294 114 228 238 234 186 245 257 254 259 268 313 352 308 306 311 289 288 279 266 247 245 249 245 250 262 275 280 280 280 271 262 257 256 256 252 250 249 250 248 243
237 248 258 36 121 196 230 305 111 243 258 241 255 308 342 336 324 326 321 310 305 267 252 247 234 239 251 262 274 286 287 288 290 282 273 269 268 263 257 252 253 253 253 249
226 236 242 112 166 214 314 39 75 248 250 250 269 304 323 328 327 328 329 325 301 274 269 246 232 246 259 272 290 294 291 289 288 290 291 281 274 269 260 253 251 255 254 251
237 258 17 170 221 299 326 280 268 262 252 240 250 271 300 307 318 323 317 306 295 283 273 247 237 255 268 282 293 288 286 288 291 295 293 285 273 267 266 261 256 254 253 252
247 251 263 245 249 265 276 279 273 260 238 228 245 263 286 301 313 323 321 316 296 277 270 260 255 267 284 294 282 275 281 288 293 291 290 287 286 278 275 273 271 269 265 264
251 262 263 247 255 262 262 261 255 249 239 240 248 258 281 292 309 318 312 301 277 271 272 276 268 283 296 291 280 277 282 285 288 290 292 290 289 291 279 281 290 285 276 275
256 255 257 260 258 263 254 254 253 252 255 251 244 252 271 292 309 316 313 296 284 289 291 287 272 283 290 288 282 280 281 285 286 283 281 281 283 291 299 281 296 291 295 289
281 287 282 271 254 244 251 257 252 255 256 260 256 244 240 267 296 292 288 301 302 292 287 277 272 280 291 287 281 279 281 282 283 282 282 282 284 286 294 284 261 266 281 290
261 260 258 249 248 248 250 249 248 255 254 247 237 220 221 245 260 265 279 289 290 289 289 283 284 293 300 290 280 280 284 282 281 279 277 276 283 289 290 294 293 290 273 268
250 260 258 255 244 245 240 229 230 232 226 225 225 228 232 247 262 285 296 291 284 291 300 300 296 300 304 293 283 280 279 280 280 282 281 279 281 284 285 287 289 295 301 289
247 255 249 241 240 239 230 226 231 229 223 223 229 239 247 251 265 285 299 290 278 285 295 294 294 300 297 288 282 276 278 293 290 281 276 275 278 282 286 286 285 287 291 301
230 239 246 247 248 245 239 237 237 232 226 226 232 237 240 247 259 272 285 286 284 285 287 287 294 302 291 283 279 278 280 276 270 274 275 274 275 277 280 279 279 283 286 303
246 250 249 249 245 241 239 239 233 231 229 228 224 229 234 242 256 269 278 281 284 286 293 299 306 301 288 279 277 277 278 279 274 276 280 282 280 277 275 274 278 282 290 290
256 258 258 253 246 236 233 232 229 229 226 215 218 235 247 254 261 267 270 271 275 282 302 315 311 291 286 285 286 271 272 273 276 280 283 286 278 274 270 271 276 282 288 290
258 251 245 240 239 238 238 233 227 219 215 215 225 235 247 258 265 263 264 269 275 293 304 307 296 290 287 280 277 272 271 272 279 284 286 283 279 279 278 276 279 283 284 283
246 243 245 241 249 251 245 234 222 223 222 220 229 241 254 264 264 263 265 273 281 297 299 296 288 289 288 286 268 271 275 277 278 281 282 281 282 284 286 287 287 285 284 283
261 255 256 260 264 262 248 237 229 230 231 230 235 242 251 256 260 266 269 275 287 297 290 282 286 295 296 288 273 276 276 275 277 280 281 282 284 286 287 292 292 290 288 285
258 262 260 266 274 280 266 247 236 233 234 236 240 243 248 257 258 263 272 278 283 290 286 282 300 298 290 280 278 275 275 276 279 280 281 283 285 285 286 289 290 289 288 288
262 275 276 279 276 269 267 264 254 244 244 250 249 253 256 258 263 268 279 286 283 281 279 285 286 285 280 274 274 274 276 280 281 279 281 284 284 284 285 288 288 287 286 286
256 262 263 268 263 260 263 264 263 255 253 260 268 268 267 265 268 278 282 278 276 272 276 274 267 278 275 274 277 280 282 282 283 284 284 284 283 281 282 284 285 286 285 284
255 260 262 263 265 262 258 252 253 256 257 265 276 279 279 278 277 279 278 278 278 274 277 279 270 273 280 279 279 281 282 280 276 276 279 279 279 280 280 280 282 281 283 285
258 266 270 277 278 269 262 256 256 259 261 264 275 283 285 287 285 284 282 279 277 275 279 282 282 283 288 283 277 279 280 280 280 280 281 280 282 283 283 282 283 284 285 285